{"data":{"norad_id":67205,"epoch":"2026-09-20T14:20:17.850048Z","epoch_age_seconds":70595,"freshness":"FRESH","line1":"1 67205U 25304P   26263.59742882  .00002844  00000+0  24596-3 0  9994","line2":"2 67205  70.0011  42.8736 0003033 269.1031  90.9781 14.98338710 43052","mean_motion":14.9833871,"eccentricity":0.0003033,"inclination_deg":70.0011,"raan_deg":42.8736,"arg_perigee_deg":269.1031,"mean_anomaly_deg":90.9781,"bstar":0.00024596,"rev_number":4305,"period_min":96.106440445632,"perigee_km":569.9209707839,"apogee_km":574.13694145288,"semimajor_km":6950.1659561184,"source":"CELESTRAK","updated_at":"2026-09-21T09:00:36.137885Z"}}